Regional Weather Roundup
Issued by NWS

Home | Current Version | Previous Version | Graphics & Text | Print | Product List | Glossary On
Versions: 1 2 3 4 5 6 7 8 9 10 11 12 13 14 15 16 17 18 19 20 21 22 23 24 25 26 27 28 29 30 31 32 33 34 35 36 37 38 39 40 41 42 43 44 45 46 47 48 49 50
000
ASUS43 KLMK 170310
RWRKY
KENTUCKY REGIONAL WEATHER ROUNDUP
NATIONAL WEATHER SERVICE LOUISVILLE KY
1000 PM EST SAT DEC 16 2017

NOTE "FAIR" INDICATES FEW OR NO CLOUDS BELOW 12,000 FEET
WITH NO SIGNIFICANT WEATHER AND/OR OBSTRUCTIONS TO VISIBILITY.

KYZ001>023-026-027-061>063-070>075-170400-
WESTERN AND SOUTH CENTRAL KENTUCKY

CITY           SKY/WX    TMP DP  RH WIND       PRES   REMARKS
PADUCAH        MOCLDY    45  29  53 S5        30.15F
HENDERSON      PTCLDY    40  29  64 S9        30.16R WCI  34
OWENSBORO      CLOUDY    38  29  70 S8        30.18R WCI  32
HOPKINSVILLE   MOCLDY    45  28  51 S6        30.19R
BOWLING GREEN  PTCLDY    42  31  64 S7        30.21R
GLASGOW        CLOUDY    40  29  65 S5        30.20F
$$

KYZ024-025-028>034-038-045-046-053-170400-
NORTH CENTRAL KENTUCKY

CITY           SKY/WX    TMP DP  RH WIND       PRES   REMARKS
LOUISVILLE/SDF CLOUDY    45  29  53 S6        30.16S
LOUISVILLE/LOU CLOUDY    41  30  65 S8        30.17S
FORT KNOX      CLOUDY    38  28  67 S7        30.16R WCI  33
$$

KYZ035>037-039>044-047>052-055>060-089>105-170400-
NORTHEAST KENTUCKY

CITY           SKY/WX    TMP DP  RH WIND       PRES   REMARKS
LEXINGTON      CLOUDY    39  28  64 S7        30.18R WCI  34
COVINGTON      CLOUDY    43  30  60 SW13      30.13R
FRANKFORT      CLOUDY    41  27  57 S8        30.16R
$$

KYZ054-064>069-076>088-106>120-170400-
SOUTHEAST KENTUCKY

CITY           SKY/WX    TMP DP  RH WIND       PRES   REMARKS
JACKSON        CLOUDY    40  26  57 SW5       30.20R
LONDON         CLOUDY    37  26  64 S3        30.22R
SOMERSET       CLOUDY    36  28  75 S8        30.25R WCI  29
MIDDLESBORO    PTCLDY    29  26  89 CALM      30.26S
MONTICELLO     CLOUDY    31  27  85 VRB6      30.24R WCI  25
$$




USA.gov is the U.S. government's official web portal to all federal, state and local government web resources and services.